www.pogodaiklimat.ru

Погода и климат >> Архив погоды >> Венгрия >> Bekescsaba


ПОГОДА в Bekescsaba

  • Прогноз погоды в Bekescsaba
  • Монитор погоды в Bekescsaba
  • Климат города

АРХИВ ПОГОДЫ в Bekescsaba

Время (UTC), дата Ветер
(напр.,м/с)
 
Видим.   Явления Облачность Т
(С)
Тd
(С)
f
(%)
Тe
(С)
Тes
(С)
Комфортность P
(гПа)
Po
(гПа)
Тmin
(С)
Tmax
(С)
R
(мм)
R24
(мм)
S
(см)
22 15.10 штиль 0 н/о н/о +8.7 +3.5 70 +8 +8 1023.3 1012.4
23 15.10 В 1 н/о н/о +7.1 +3.5 78 +6 +6 1023.5 1012.6
00 16.10 штиль 0 н/о н/о +5.8 +2.6 80 +5 +5 1023.9 1012.9
01 16.10 штиль 0 н/о н/о +5.8 +3.5 85 +5 +5 1024.0 1013.0
02 16.10 штиль 0 н/о н/о +4.5 +2.7 88 +3 +3 1023.8 1012.8
03 16.10 штиль 0 15 км ясно +3.2 +2.0 92 +2 +2 1023.7 1012.6
04 16.10 В 2 15 км ясно +3.3 +2.3 93 0 0 1023.8 1012.7
05 16.10 ЮВ 1 18 км 1/0
[Ci sp]
+3.3 +2.0 91 +2 +2 1023.9 1012.8
06 16.10 Ю 1 20 км 1/0
[Ci sp]
+5.4 +2.2 80 +4 +5 1024.1 1013.1 +2.4
07 16.10 штиль 0 н/о н/о +9.2 +4.6 73 +9 +9 1024.6 1013.7
08 16.10 ЮВ 1 н/о н/о +13.6 +4.5 54 +14 +14 1024.6 1013.9
09 16.10 Ю 1 30 км ясно +17.7 +5.0 43 +19 +25 1024.5 1013.9
10 16.10 ЮВ 1 н/о н/о +20.5 +3.3 32 +22 +22 комфорт 1024.0 1013.6
11 16.10 Ю 1 40 км ясно +21.9 +3.1 29 +22 +29 комфорт 1023.5 1013.1
12 16.10 ЮВ 2 40 км ясно +23.2 +2.1 25 +23 +28 комфорт 1022.8 1012.5
13 16.10 Ю 1 40 км ясно +24.1 +1.7 23 +23 +27 комфорт 1022.4 1012.1
14 16.10 Ю 1 н/о н/о +23.9 +0.9 22 +23 +23 комфорт 1022.3 1012.0
15 16.10 СВ 1 40 км 1/0
[Ci sp]
+22.5 +2.1 26 +22 +23 комфорт 1022.3 1011.9
16 16.10 СВ 1 н/о н/о +17.4 +4.7 43 +18 +18 1022.5 1012.0
17 16.10 СВ 1 н/о н/о +14.3 +5.1 54 +15 +15 1022.9 1012.2
18 16.10 В 1 30 км 1/0
[Ci sp]
+12.7 +4.4 57 +13 +13 1023.0 1012.3 +24.2
19 16.10 штиль 0 н/о н/о +11.8 +4.1 59 +12 +12 1023.3 1012.5
20 16.10 В 2 н/о н/о +11.5 +4.5 62 +11 +11 1023.3 1012.5
21 16.10 В 2 н/о н/о +13.7 +2.9 48 +13 +13 1023.2 1012.5
22 16.10 В 2 н/о н/о +12.2 +2.6 52 +12 +12 1023.0 1012.3
23 16.10 штиль 0 н/о н/о +10.4 +3.4 62 +10 +10 1023.0 1012.2
00 17.10 В 1 н/о н/о +9.1 +3.3 67 +9 +9 1023.2 1012.3
01 17.10 штиль 0 н/о н/о +7.9 +3.4 73 +7 +7 1023.1 1012.2
02 17.10 штиль 0 н/о н/о +7.4 +3.6 77 +7 +7 1022.9 1012.0
03 17.10 З 1 18 км 9/0
[Cs]
+5.5 +3.5 87 +4 +4 1023.0 1012.0
04 17.10 СВ 1 18 км 9/0
[Cs]
+5.1 +3.1 87 +4 +4 1023.0 1012.0
05 17.10 штиль 0 18 км 9/0
[Cs]
+5.1 +3.0 86 +4 +4 1023.2 1012.2
06 17.10 штиль 0 15 км 9/0
[Cs]
+5.6 +3.9 89 +5 +5 1023.4 1012.4 +4.7
07 17.10 В 1 н/о н/о +10.0 +5.4 73 +10 +10 1023.4 1012.6
08 17.10 штиль 0 н/о н/о +15.0 +5.2 52 +15 +15 1023.1 1012.5
09 17.10 штиль 0 50 км 9/0
[Cs]
+18.3 +4.1 39 +18 +24 1022.8 1012.3
10 17.10 СЗ 2 н/о н/о +20.5 +4.5 35 +22 +22 комфорт 1022.4 1012.0
11 17.10 С 1 50 км 9/0
[Cs]
+22.2 +3.3 29 +22 +28 комфорт 1021.8 1011.4
12 17.10 СВ 1 50 км 9/0
[Ac trans Ci sp]
+21.9 +3.6 30 +22 +27 комфорт 1020.9 1010.5
13 17.10 С 2 50 км 9/0
[Ac trans Ci sp]
+23.4 +3.9 28 +23 +26 комфорт 1020.2 1009.9
14 17.10 С 2 н/о н/о +23.9 +3.8 27 +23 +23 комфорт 1019.7 1009.4
15 17.10 С 2 35 км 6/0
[Ac lent Ci sp]
+21.6 +4.2 32 +22 +22 комфорт 1019.6 1009.2
16 17.10 С 2 н/о н/о +18.9 +3.9 37 +20 +20 1019.7 1009.2
17 17.10 СЗ 1 н/о н/о +14.6 +6.4 58 +15 +15 1019.9 1009.3
18 17.10 СЗ 1 30 км 4/0
[Ci sp]
+13.8 +5.4 57 +14 +14 1019.8 1009.2 +24.0
19 17.10 С 1 н/о н/о +10.5 +4.6 67 +10 +10 1020.0 1009.2
20 17.10 штиль 0 н/о н/о +11.1 +5.2 67 +11 +11 1020.1 1009.3
21 17.10 СЗ 1 н/о н/о +8.3 +4.5 77 +8 +8 1020.3 1009.4
22 17.10 штиль 0 н/о н/о +8.9 +4.7 75 +8 +8 1020.0 1009.2
23 17.10 штиль 0 н/о н/о +8.4 +4.8 78 +8 +8 1020.1 1009.2
00 18.10 штиль 0 н/о н/о +7.1 +4.6 84 +6 +6 1020.1 1009.2
01 18.10 В 1 н/о н/о +6.6 +4.6 87 +6 +6 1019.8 1008.9
02 18.10 штиль 0 н/о н/о +5.4 +3.6 88 +4 +4 1019.9 1008.9
03 18.10 штиль 0 12 км 3/0
[Ci sp]
+5.0 +4.0 93 +4 +4 1019.8 1008.8
04 18.10 ЮВ 1 12 км 4/0
[Ci sp]
+4.7 +3.5 92 +3 +3 1019.8 1008.8
05 18.10 штиль 0 12 км 4/0
[Ac lent Ci sp]
+4.6 +3.4 92 +3 +3 1019.5 1008.5
06 18.10 ЮВ 1 12 км 9/0
[Ac lent Cs]
+5.9 +4.1 88 +5 +5 1019.6 1008.7 +3.6
07 18.10 штиль 0 н/о н/о +9.8 +6.5 80 +9 +9 1019.5 1008.7
08 18.10 штиль 0 н/о н/о +15.1 +6.1 55 +15 +15 1019.6 1009.0
09 18.10 штиль 0 20 км 9/0
[Ac trans Ci sp]
+18.0 +6.5 47 +18 +23 1019.3 1008.8
10 18.10 СЗ 1 н/о н/о +19.4 +6.5 43 +21 +21 комфорт 1019.0 1008.6
11 18.10 С 1 25 км 10/0
[Ac trans Cs]
+20.4 +6.4 40 +22 +27 комфорт 1018.4 1008.0
12 18.10 С 2 27 км 10/0
[Ac trans Cs]
+21.8 +6.5 37 +23 +26 комфорт 1017.8 1007.5
13 18.10 С 2 30 км 9/0
[Ac trans Cs]
+21.6 +5.9 36 +22 +24 комфорт 1017.4 1007.1
14 18.10 С 2 н/о н/о +21.5 +5.8 36 +22 +22 комфорт 1017.2 1006.9
15 18.10 СЗ 2 27 км 9/0
[Ac As]
+20.7 +7.0 41 +22 +23 комфорт 1017.2 1006.8
16 18.10 С 2 н/о н/о +18.1 +7.2 49 +19 +19 1017.2 1006.7
17 18.10 С 2 н/о н/о +17.6 +7.6 52 +18 +18 1017.5 1007.0
18 18.10 С 3 20 км слабый дождь 10/0
[Ac As]
+17.0 +7.6 54 +17 +17 1017.8 1007.3 +22.3 0
19 18.10 СВ 3 н/о н/о +16.8 +7.7 55 +17 +17 1018.1 1007.6
20 18.10 СВ 3 н/о н/о +16.8 +8.2 57 +17 +17 1018.2 1007.7
21 18.10 С 2 н/о н/о +16.2 +8.4 60 +16 +16 1018.3 1007.8
22 18.10 В 1 н/о н/о +14.7 +8.0 64 +15 +15 1018.4 1007.8
23 18.10 СЗ 1 н/о н/о +12.4 +7.9 74 +12 +12 1018.7 1008.0
00 19.10 СЗ 3 н/о н/о +13.7 +9.2 74 +13 +13 1018.3 1007.7
01 19.10 СВ 2
{8}
н/о н/о +16.5 +9.0 61 +17 +17 1017.9 1007.4
02 19.10 СЗ 3 н/о н/о +14.5 +9.3 71 +14 +14 1018.5 1007.9
03 19.10 СЗ 2 15 км {ливн. осадки} 10/0
[Ac As]
+14.0 +9.6 75 +14 +14 1018.4 1007.8
04 19.10 СЗ 1 15 км 10/0
[Ac As]
+13.3 +9.5 78 +14 +14 1018.5 1007.8
05 19.10 С 2 12 км в посл. час дождь 10/1 900 м
[Sc Ac As]
+13.0 +10.5 85 +12 +12 1018.2 1007.5
06 19.10 Ю 2 12 км слабый ливневой дождь 10/5 600 м
[Cu med, cong Ac As]
+13.8 +10.4 80 +13 +13 1019.1 1008.5 +12.0 0
07 19.10 С 4 н/о н/о +12.9 +11.8 93 +11 +11 1019.4 1008.7
08 19.10 СЗ 3
{7}
н/о н/о +13.7 +12.3 91 +12 +12 1020.0 1009.3
09 19.10 С 2 10 км в посл. час дождь {ливн. осадки} 10/0
[Ac As]
+14.8 +12.7 87 +14 +16 1020.0 1009.4
10 19.10 СВ 2 н/о н/о +15.4 +12.5 83 +15 +15 1020.1 1009.5
11 19.10 В 1 20 км слабый дождь 10/1 480 м
[Sc Ac As]
+16.1 +12.7 80 +17 +19 1019.9 1009.3
12 19.10 СВ 2 25 км {ливн. осадки, дождь} 9/0
[Ac As]
+16.3 +13.4 83 +16 +18 1019.5 1008.9 2
13 19.10 СВ 1 25 км 10/0
[Ac As]
+17.2 +12.7 75 +18 +19 1019.3 1008.8
14 19.10 СЗ 1 н/о н/о +17.0 +12.9 77 +18 +18 1019.4 1008.9
15 19.10 штиль 0 25 км {ливн. осадки} 9/0
[Ac cast]
+17.1 +12.8 76 +17 +17 1019.4 1008.9
16 19.10 штиль 0 н/о н/о +15.6 +13.1 85 +15 +15 1019.3 1008.7
17 19.10 С 1 н/о н/о +14.0 +12.9 93 +14 +14 1019.7 1009.1
18 19.10 З 1 12 км {ливн. осадки} 9/0
[Ac As]
+12.9 +12.0 94 +13 +13 1020.2 1009.5 +17.3 2 0
19 19.10 В 1 н/о н/о +12.0 +11.4 96 +12 +12 1020.5 1009.8
20 19.10 штиль 0 н/о н/о +10.7 +10.5 99 +10 +10 1021.1 1010.3
21 19.10 штиль 0 н/о н/о +9.7 +9.7 100 +9 +9 1020.9 1010.1
22 19.10 ЮЗ 1 н/о н/о +8.9 +8.9 100 +8 +8 1020.8 1010.0
23 19.10 штиль 0 н/о н/о +9.0 +9.0 100 +8 +8 1021.0 1010.2
00 20.10 СЗ 1 н/о н/о +8.3 +8.3 100 +7 +7 1021.2 1010.3
01 20.10 штиль 0 н/о н/о +8.7 +8.7 100 +8 +8 1021.2 1010.3
02 20.10 СЗ 1 н/о н/о +9.3 +9.3 100 +8 +8 1021.1 1010.3
03 20.10 СЗ 2 6000 м 10/0
[Ac As]
+9.7 +9.6 99 +8 +8 1021.2 1010.4
04 20.10 штиль 0 6000 м 10/0
[Ac As]
+9.9 +9.8 99 +9 +9 1021.4 1010.6
05 20.10 З 1 5000 м дымка 9/0
[Ac As]
+10.3 +10.0 98 +10 +10 1021.4 1010.6
06 20.10 СЗ 1 5000 м дымка 9/0
[Ac As]
+10.5 +10.0 97 +10 +10 1021.8 1011.0 +7.6 0
07 20.10 З 1 н/о н/о +11.9 +11.3 96 +12 +12 1022.3 1011.6
08 20.10 СЗ 2 н/о н/о +13.6 +12.0 90 +13 +13 1022.8 1012.1
09 20.10 С 2 4200 м дымка 9/0
[Ac As]
+15.1 +11.9 81 +15 +17 1023.0 1012.4
10 20.10 СЗ 3 н/о н/о +16.1 +11.7 75 +16 +16 1023.1 1012.5
11 20.10 С 4
{7}
8000 м 3/0
[Ac trans]
+17.4 +11.2 67 +17 +20 1022.7 1012.2
12 20.10 С 3 12 км 1/0
[Ac trans]
+18.2 +11.0 63 +19 +22 1022.3 1011.8
13 20.10 С 2 12 км 4/0
[Ac trans]
+18.7 +11.3 62 +20 +22 1021.9 1011.4
14 20.10 С 3 н/о н/о +18.6 +11.2 62 +19 +19 1021.7 1011.2
15 20.10 12 км 9/0
[Ac As]
+18.1 +11.0 63 1021.4 1010.9
16 20.10 штиль 0 н/о н/о +17.4 +11.7 69 +17 +17 1021.4 1010.9
17 20.10 штиль 0 н/о н/о +16.4 +11.8 74 +16 +16 1021.6 1011.0
18 20.10 штиль 0 10 км 10/0
[Ac As]
+15.3 +11.9 80 +15 +15 1021.4 1010.8 +19.2 0
19 20.10 З 2 н/о н/о +14.1 +11.6 85 +14 +14 1021.5 1010.8
20 20.10 З 2 н/о н/о +14.2 +10.8 80 +14 +14 1021.3 1010.7
21 20.10 З 3 н/о н/о +14.3 +10.7 79 +13 +13 1021.1 1010.5
22 20.10 З 2 н/о н/о +12.3 +9.3 82 +11 +11 1020.7 1010.0
23 20.10 З 3 н/о н/о +12.5 +9.5 82 +11 +11 1020.3 1009.6
00 21.10 СЗ 4 н/о н/о +11.6 +8.3 80 +9 +9 1019.9 1009.2
01 21.10 СЗ 2 н/о н/о +10.0 +7.4 84 +8 +8 1019.3 1008.5
02 21.10 З 2 н/о н/о +10.1 +8.4 89 +9 +9 1019.0 1008.2
03 21.10 СЗ 2 10 км 10/0
[As op]
+11.1 +9.0 87 +10 +10 1018.8 1008.1
04 21.10 С 8
{11}
10 км 10/0
[Ac As]
+10.3 +6.8 79 +6 +6 1019.2 1008.4
05 21.10 С 6
{12}
10 км слабый дождь 10/0
[Ac As]
+9.7 +4.7 71 +6 +6 1019.4 1008.6
06 21.10 С 5 15 км слабый дождь 10/0
[Ac As]
+9.4 +5.0 74 +6 +6 1019.7 1008.9 +9.4 0
07 21.10 С 5
{8}
н/о н/о +9.5 +4.5 71 +6 +6 1020.4 1009.6
08 21.10 С 4
{7}
н/о н/о +9.4 +5.4 76 +7 +7 1020.7 1009.9
09 21.10 С 3 30 км слабый дождь 10/0
[Ac As]
+9.5 +5.5 76 +7 +8 1021.2 1010.4
10 21.10 С 2 н/о н/о +9.2 +6.6 84 +7 +7 1021.6 1010.8
11 21.10 С 4 30 км 10/0
[Ac As]
+9.5 +6.6 82 +7 +8 1021.8 1011.0
12 21.10 С 4 35 км {дождь} 10/5 300 м
[Cu med, cong Ac As]
+9.9 +6.6 80 +7 +8 1022.0 1011.2 0.1
13 21.10 СЗ 4 30 км 10/6 300 м
[Cu med, cong Ac As]
+10.2 +7.3 82 +8 +8 1022.3 1011.5
14 21.10 СЗ 2 н/о н/о +11.2 +7.5 78 +10 +10 1022.2 1011.4
15 21.10 З 1 25 км 10/4 400 м
[Cu med, cong Ac As]
+11.3 +7.6 78 +11 +11 1022.4 1011.6
16 21.10 СЗ 1 н/о н/о +10.9 +8.0 82 +11 +11 1022.7 1011.9
17 21.10 Ю 1 н/о н/о +10.7 +7.9 83 +10 +10 1023.6 1012.8
18 21.10 штиль 0 20 км 10/0
[Ac As]
+9.6 +7.9 89 +9 +9 1024.0 1013.2 +11.3 0.1
19 21.10 Ю 2 н/о н/о +8.6 +7.7 94 +7 +7 1024.2 1013.3
20 21.10 штиль 0 н/о н/о +6.4 +6.3 99 +5 +5 1024.7 1013.7
21 21.10 С 1 н/о н/о +6.7 +6.4 98 +5 +5 1025.0 1014.0
22 21.10 штиль 0 н/о н/о +7.6 +7.3 98 +7 +7 1024.9 1014.0
23 21.10 штиль 0 н/о н/о +7.8 +7.5 98 +7 +7 1025.0 1014.1
00 22.10 СЗ 1 н/о н/о +7.8 +7.5 98 +7 +7 1024.9 1014.0
01 22.10 СЗ 1 н/о н/о +7.9 +7.6 98 +7 +7 1024.7 1013.8
02 22.10 штиль 0 н/о н/о +6.7 +6.6 99 +6 +6 1024.3 1013.3
03 22.10 СЗ 1 5000 м местами туман поземный 9/0
[Ac trans]
+5.6 +5.6 100 +4 +4 1024.3 1013.3
04 22.10 СЗ 1 5000 м местами туман поземный 9/0
[Ac As]
+6.3 +6.3 100 +5 +5 1024.3 1013.3
05 22.10 штиль 0 6000 м 9/0
[Ac As]
+7.4 +7.4 100 +6 +6 1024.4 1013.5
06 22.10 штиль 0 6000 м 9/0
[Ac As]
+7.7 +7.4 98 +7 +7 1024.7 1013.8 +5.4
07 22.10 В 1 н/о н/о +9.2 +8.0 92 +8 +8 1025.2 1014.3
08 22.10 штиль 0 н/о н/о +11.0 +8.0 82 +10 +10 1025.5 1014.7
09 22.10 ЮВ 1 10 км 9/0
[Ac As]
+11.3 +8.2 81 +11 +13 1025.4 1014.6
10 22.10 З 1 н/о н/о +12.4 +8.5 77 +12 +12 1025.4 1014.6
11 22.10 З 1 12 км 9/0
[Ac As]
+13.2 +8.9 75 +13 +16 1024.8 1014.1
12 22.10 З 1 12 км 9/0
[Ac As]
+13.0 +8.7 75 +13 +15 1024.4 1013.7
13 22.10 З 2 15 км 9/0
[Ac As]
+13.2 +8.7 74 +13 +14 1024.0 1013.3
14 22.10 З 2 н/о н/о +13.2 +8.5 73 +13 +13 1023.7 1013.0
15 22.10 штиль 0 15 км 9/0
[Ac As]
+13.2 +8.5 73 +13 +13 1023.6 1012.9
16 22.10 СЗ 1 н/о н/о +12.6 +8.5 76 +13 +13 1023.4 1012.7
17 22.10 ЮЗ 1 н/о н/о +11.4 +8.8 84 +11 +11 1023.8 1013.0
18 22.10 СЗ 1 12 км 9/0
[Ac As]
+10.9 +8.7 86 +11 +11 1023.9 1013.1 +13.5
19 22.10 штиль 0 н/о н/о +11.0 +8.8 86 +10 +10 1023.9 1013.1
20 22.10 ЮЗ 2 н/о н/о +10.8 +8.7 87 +9 +9 1024.1 1013.3
21 22.10 штиль 0 н/о н/о +10.6 +8.4 86 +10 +10 1024.0 1013.2
22 22.10 З 1 н/о н/о +9.6 +7.9 89 +9 +9 1024.0 1013.2

 

Местоположение метеостанции Bekescsaba (Венгрия): широта 46.68 долгота 21.17 высота над уровнем моря 90 м.

В архиве по умолчанию представлена погода в Bekescsaba за последнюю неделю. Архивные данные за месяц целиком и за предыдущие месяцы, начиная с января 2011 года, Вы можете получить, выбрав интересующий диапазон дат из раскрывающегося списка и нажав кнопку "Ввод!".


*Определитесь, кто Вы:
робот инопланетянин человек

Внимание! Время в таблицах - всемирное. Для получения местного времени необходимо прибавить поправку, которая в Bekescsaba равна 1 ч.

Смотрите также архив погоды в соседних городах и на ближайших метеорологических станциях:

Погода в Chisineu-Cris (Румыния) (32 км)
Погода в Siria (Румыния) (60 км)
Погода в Arad (Румыния) (63 км)
Погода в Oradea (Румыния) (68 км)
Погода в Holod (Румыния) (73 км)
Погода в Dumbravita De Codru (Румыния) (77 км)
Погода в Sannicolaul Mare (Румыния) (80 км)
Погода в Szolnok (Венгрия) (87 км)
Погода в Debrecen (Венгрия) (95 км)
Погода в Szeged (Венгрия) (95 км)

Пояснения к столбцам:

Ветер - указаны скорость ветра в м/с - средняя за 10 мин, порывы в срок и между сроками (в фигурных скобках) и направление, откуда дует ветер: С - северный, СВ - северо-восточный, В - восточный, ЮВ - юго-восточный, Ю - южный, ЮЗ - юго-западный, З - западный, СЗ - северо-западный.
Видимость - горизонтальная дальность видимости в метрах или километрах. При видимости от 1 до 10 км при отсутствии осадков обычно наблюдается дымка, при ухудшении видимости до 1 км и менее - туман. В сухую погоду видимость может ухудшаться дымом, пылью или мглою.
Явления - указаны атмосферные явления, наблюдавшиеся в срок или в последний час перед сроком; фигурными скобками обозначены явления, наблюдавшиеся между сроками (за 1-3 часа до срока); квадратными скобками обозначены град или гололедные отложения с указанием их диаметра в мм.
Облачность - указаны через наклонную черту общая и нижняя облачность в баллах и высота нижней границы облаков в метрах; квадратными скобками обозначены формы облаков: Ci - перистые, Cs - перисто-слоистые, Cc - перисто-кучевые, Ac - высококучевые, As - высокослоистые, Sc - слоисто-кучевые, Ns - слоисто-дождевые, Cu - кучевые, Cb - кучево-дождевые. Подробнее классификацию облаков см. в Атласе облаков (PDF).
T - Температура воздуха - температура, измеренная на высоте 2 м над землей.
Td - Температура точки росы - температура, при понижении до которой содержащийся в воздухе водяной пар достигнет насыщения.
f - Относительная влажность воздуха - влажноcть воздуха, измеренная на высоте 2 м над землей.
Te - Эффективная температура - температура, которую ощущает одетый по сезону человек в тени. Характеристика душности погоды. При расчете учитывается влияние влажности воздуха и скорости ветра на теплоощущения человека.
Tes - Эффективная температура на солнце - температура, которую ощущает человек, с поправкой на солнечный нагрев. Характеристика знойности погоды. Зависит от высоты солнца над горизонтом, облачности и скорости ветра. Ночью, в пасмурную погоду, а также при ветре 12 м/с и более поправка равна нулю.
P - Атмосферное давление - приведенное к уровню моря атмосферное давление.
Po - Атмосферное давление - измеренное на уровне метеостанции атмосферное давление.
Tmin - Минимальная температура - минимум температуры воздуха на высоте 2 м над землей.
Tmax - Максимальная температура - максимум температуры воздуха на высоте 2 м над землей.
R - Количество осадков - Количество выпавших осадков за период времени, мм. При наведении курсора мыши на число - период времени, за который выпало указанное количество осадков.
R24 - Количество осадков - Количество выпавших осадков за 24 часа, мм.
S - Снежный покров - Высота снежного покрова, см. При наведении курсора мыши на число - состояние снежного покрова и степень покрытия местности в баллах.